Date String (YYYY-MM-DD hh:mm:ss) UTC,Instrument flags,absolute air pressure of the measurement (hPa),sample flow rate (lpm),inlet stack bypass flow (lpm),air temperature of the measurement (°C),ambient temperature measured by the external sensor (°C),aerosol sample conditioner tube jacket temperature (°C),OPC LED temperature (°C),internal box temperature (°C),relative humidity of the measurement (%),span deviation,mass concentration of particles derived from Lorenz-Mie calculation of OPC scattering (μg/m³),mass concentration of particles derived from Lorenz-Mie calculation of OPC scattering (μg/m³),mass concentration of particles derived from Lorenz-Mie calculation of OPC scattering (μg/m³)
DateTimeUTC,F1_M11,P_M11,Q1_M11,Q2_M11,T1_M11,T2_M11,T3_M11,T4_M11,T5_M11,U1_M11,ZSPAN_M11,X0_M11,X2_M11,X1_M11
2024-05-08 11:00:00,SystemResetWarning,0818.3,5.00,000.00,020.2,019.5,000.0,028.5,021.8,010.1,0000.0,0005.13,0001.65,0000.79
2024-05-08 11:01:00,SystemResetWarning,0818.1,5.02,000.00,020.2,019.5,000.0,028.5,021.8,009.7,0000.0,0005.07,0001.63,0000.78
2024-05-08 11:02:00,SystemResetWarning,0818.2,5.00,000.00,020.2,019.5,000.0,028.5,021.8,009.8,0000.0,0006.93,0001.59,0000.78
2024-05-08 11:03:00,SystemResetWarning,0818.3,5.00,000.00,020.2,019.5,000.0,028.5,021.7,009.6,0000.0,0007.05,0001.57,0000.78
2024-05-08 11:04:00,SystemResetWarning,0818.3,5.00,000.00,020.2,019.5,000.0,028.4,021.7,009.6,0000.0,0006.91,0001.49,0000.76
2024-05-08 11:05:00,SystemResetWarning,0818.3,5.00,000.00,020.2,019.5,000.0,028.4,021.7,009.5,0000.0,0006.22,0001.46,0000.76
2024-05-08 11:06:00,SystemResetWarning,0818.3,4.99,000.00,020.1,019.5,000.0,028.4,021.7,009.4,0000.0,0005.86,0001.45,0000.75
2024-05-08 11:07:00,SystemResetWarning,0818.2,4.99,000.00,020.1,019.5,000.0,028.4,021.8,009.5,0000.0,0005.71,0001.41,0000.75
2024-05-08 11:08:00,SystemResetWarning,0818.2,5.00,000.00,020.1,019.5,000.0,028.4,021.8,009.5,0000.0,0005.63,0001.40,0000.75
2024-05-08 11:09:00,SystemResetWarning,0818.3,5.01,000.00,020.1,019.5,000.0,028.4,021.8,009.6,0000.0,0005.70,0001.43,0000.75
2024-05-08 11:10:00,SystemResetWarning,0818.3,5.01,000.00,020.1,019.5,000.0,028.4,021.8,009.6,0000.0,0005.56,0001.41,0000.76
2024-05-08 11:11:00,SystemResetWarning,0818.2,4.97,000.00,020.1,019.5,000.0,028.4,021.7,009.5,0000.0,0005.29,0001.35,0000.77
2024-05-08 11:12:00,SystemResetWarning,0818.2,5.01,000.00,020.1,019.5,000.0,028.4,021.7,009.6,0000.0,0006.09,0001.36,0000.78
2024-05-08 11:13:00,SystemResetWarning,0818.3,5.02,000.00,020.1,019.5,000.0,028.4,021.7,009.7,0000.0,0004.71,0001.41,0000.78
2024-05-08 11:14:00,SystemResetWarning,0818.3,4.99,000.00,020.1,019.5,000.0,028.4,021.7,009.7,0000.0,0004.79,0001.40,0000.77
2024-05-08 11:15:00,SystemResetWarning,0818.2,4.99,000.00,020.1,019.5,000.0,028.4,021.8,009.6,0000.0,0004.70,0001.39,0000.77
2024-05-08 11:16:00,SystemResetWarning,0818.3,5.00,000.00,020.1,019.5,000.0,028.4,021.8,009.5,0000.0,0004.70,0001.40,0000.78
2024-05-08 11:17:00,SystemResetWarning,0818.3,5.01,000.00,020.1,019.4,000.0,028.4,021.7,009.6,0000.0,0004.72,0001.41,0000.79
2024-05-08 11:18:00,SystemResetWarning,0818.3,5.01,000.00,020.1,019.4,000.0,028.4,021.7,009.5,0000.0,0005.34,0001.43,0000.79
2024-05-08 11:19:00,SystemResetWarning,0818.3,5.00,000.00,020.1,019.4,000.0,028.3,021.7,009.6,0000.0,0006.28,0001.44,0000.78
2024-05-08 11:20:00,SystemResetWarning,0818.3,4.99,000.00,020.1,019.4,000.0,028.3,021.7,009.6,0000.0,0006.45,0001.36,0000.78
2024-05-08 11:21:00,SystemResetWarning,0818.3,4.99,000.00,020.1,019.4,000.0,028.3,021.7,009.7,0000.0,0006.45,0001.36,0000.78
2024-05-08 11:22:00,SystemResetWarning,0818.4,4.99,000.00,020.1,019.4,000.0,028.3,021.7,009.6,0000.0,0006.53,0001.39,0000.79
2024-05-08 11:23:00,SystemResetWarning,0818.4,5.02,000.00,020.1,019.4,000.0,028.3,021.7,009.6,0000.0,0005.94,0001.41,0000.79
2024-05-08 11:24:00,SystemResetWarning,0818.4,5.01,000.00,020.1,019.4,000.0,028.3,021.7,009.6,0000.0,0005.40,0001.37,0000.78
2024-05-08 11:25:00,SystemResetWarning,0818.4,4.99,000.00,020.1,019.4,000.0,028.3,021.7,009.6,0000.0,0004.84,0001.38,0000.78
2024-05-08 11:26:00,SystemResetWarning,0818.4,4.99,000.00,020.1,019.4,000.0,028.3,021.7,009.6,0000.0,0005.11,0001.44,0000.79
2024-05-08 11:27:00,SystemResetWarning,0818.5,5.00,000.00,020.1,019.4,000.0,028.3,021.6,009.7,0000.0,0005.13,0001.45,0000.78
2024-05-08 11:28:00,SystemResetWarning,0818.4,5.00,000.00,020.1,019.4,000.0,028.3,021.6,009.7,0000.0,0005.00,0001.40,0000.77
2024-05-08 11:29:00,SystemResetWarning,0818.4,5.00,000.00,020.0,019.4,000.0,028.3,021.6,009.5,0000.0,0004.49,0001.45,0000.77
2024-05-08 11:30:00,SystemResetWarning,0818.4,5.01,000.00,020.1,019.4,000.0,028.3,021.6,009.5,0000.0,0003.65,0001.46,0000.78
2024-05-08 11:31:00,SystemResetWarning,0818.4,5.00,000.00,020.0,019.4,000.0,028.3,021.7,009.6,0000.0,0003.31,0001.47,0000.78
2024-05-08 11:32:00,SystemResetWarning,0818.4,4.99,000.00,020.0,019.4,000.0,028.3,021.6,009.6,0000.0,0003.38,0001.47,0000.78
2024-05-08 11:33:00,SystemResetWarning,0818.5,4.99,000.00,020.0,019.4,000.0,028.3,021.6,009.7,0000.0,0003.30,0001.43,0000.77
2024-05-08 11:34:00,SystemResetWarning,0818.5,5.01,000.00,020.0,019.4,000.0,028.3,021.6,009.7,0000.0,0003.49,0001.41,0000.77
2024-05-08 11:35:00,SystemResetWarning,0818.5,5.01,000.00,020.0,019.4,000.0,028.3,021.6,009.7,0000.0,0003.96,0001.37,0000.75
2024-05-08 11:36:00,SystemResetWarning,0818.5,5.00,000.00,020.0,019.4,000.0,028.3,021.7,009.7,0000.0,0003.83,0001.36,0000.74
2024-05-08 11:37:00,SystemResetWarning,0818.5,4.99,000.00,020.0,019.4,000.0,028.3,021.6,009.7,0000.0,0003.71,0001.32,0000.73
2024-05-08 11:38:00,SystemResetWarning,0818.5,5.00,000.00,020.0,019.4,000.0,028.3,021.6,009.8,0000.0,0003.92,0001.35,0000.73
2024-05-08 11:39:00,SystemResetWarning,0818.4,5.00,000.00,020.0,019.4,000.0,028.3,021.6,009.7,0000.0,0004.17,0001.42,0000.74
2024-05-08 11:40:00,SystemResetWarning,0818.5,5.02,000.00,020.1,019.5,000.0,028.3,021.7,009.7,0000.0,0003.97,0001.36,0000.74
2024-05-08 11:41:00,SystemResetWarning,0818.5,5.00,000.00,020.1,019.5,000.0,028.3,021.7,009.6,0000.0,0004.12,0001.37,0000.73
2024-05-08 11:42:00,SystemResetWarning,0818.6,4.99,000.00,020.1,019.5,000.0,028.3,021.7,009.6,0000.0,0004.61,0001.38,0000.72
2024-05-08 11:43:00,SystemResetWarning,0818.6,4.99,000.00,020.1,019.5,000.0,028.3,021.7,009.6,0000.0,0004.86,0001.38,0000.71
2024-05-08 11:44:00,SystemResetWarning,0818.6,5.01,000.00,020.1,019.5,000.0,028.3,021.7,009.6,0000.0,0004.90,0001.39,0000.70
2024-05-08 11:45:00,SystemResetWarning,0818.6,5.01,000.00,020.1,019.5,000.0,028.3,021.7,009.6,0000.0,0004.86,0001.43,0000.70
2024-05-08 11:46:00,SystemResetWarning,0818.6,5.00,000.00,020.1,019.5,000.0,028.3,021.7,009.6,0000.0,0005.05,0001.49,0000.71
2024-05-08 11:47:00,SystemResetWarning,0818.7,5.00,000.00,020.1,019.5,000.0,028.3,021.7,009.6,0000.0,0005.69,0001.49,0000.71
2024-05-08 11:48:00,SystemResetWarning,0818.7,4.99,000.00,020.1,019.5,000.0,028.3,021.7,009.6,0000.0,0005.70,0001.48,0000.71
2024-05-08 11:49:00,SystemResetWarning,0818.6,5.00,000.00,020.1,019.5,000.0,028.3,021.8,009.6,0000.0,0007.08,0001.53,0000.71
2024-05-08 11:50:00,SystemResetWarning,0818.6,5.00,000.00,020.1,019.5,000.0,028.4,021.8,009.6,0000.0,0006.93,0001.50,0000.70
2024-05-08 11:51:00,SystemResetWarning,0818.6,5.01,000.00,020.1,019.5,000.0,028.4,021.8,009.7,0000.0,0006.99,0001.52,0000.70
2024-05-08 11:52:00,SystemResetWarning,0818.6,5.01,000.00,020.1,019.5,000.0,028.4,021.8,009.8,0000.0,0007.08,0001.55,0000.70
2024-05-08 11:53:00,SystemResetWarning,0818.6,5.01,000.00,020.1,019.6,000.0,028.4,021.8,009.8,0000.0,0007.50,0001.56,0000.70
2024-05-08 11:54:00,SystemResetWarning,0818.7,5.00,000.00,020.1,019.6,000.0,028.4,021.8,009.9,0000.0,0007.56,0001.60,0000.71
2024-05-08 11:55:00,SystemResetWarning,0818.6,4.99,000.00,020.1,019.6,000.0,028.4,021.8,009.9,0000.0,0007.53,0001.58,0000.71
2024-05-08 11:56:00,SystemResetWarning,0818.6,5.00,000.00,020.2,019.6,000.0,028.4,021.8,009.9,0000.0,0007.51,0001.55,0000.72
2024-05-08 11:57:00,SystemResetWarning,0818.7,4.99,000.00,020.2,019.6,000.0,028.4,021.8,009.9,0000.0,0007.41,0001.53,0000.73
2024-05-08 11:58:00,SystemResetWarning,0818.7,5.00,000.00,020.2,019.6,000.0,028.4,021.8,009.9,0000.0,0006.51,0001.54,0000.73
2024-05-08 11:59:00,SystemResetWarning,0818.7,5.00,000.00,020.2,019.7,000.0,028.4,021.8,010.0,0000.0,0006.46,0001.56,0000.73
